This demonstration page uses our WeatherBlox Daily Observations layout. Learn more.

Hourly Observations for February 7, 2020

Temp ( °F °C ) Dew Point ( °F °C ) Humidity (%) Winds ( mph kmh ) Pressure ( in mb ) Visibility ( mi km ) Precip ( " mm )
12:45 am 00:45 Cloudy with Light Snow 33 0.6 30 -1.1 89 89 NW 8 13 29.7 1006 2.5 4.02335 0.001 0.001
12:54 am 00:54 Cloudy with Light Snow 33 0.6 31 -0.6 92 92 NW 7 11 29.66 1005 2.5 4.02335 0.001 0.001
1:01 am 01:01 Cloudy with Light Snow 33 0.6 31 -0.6 92 92 NW 6 9 29.7 1006 3 4.82802 0.001 0.001
1:54 am 01:54 Cloudy 33 0.6 31 -0.6 92 92 NW 3 6 29.66 1004 10 16.0934 0.01 0.254
2:28 am 02:28 Cloudy 34 1.1 30 -1.1 85 85 WNW 8 13 29.7 1006 10 16.0934 0 0
2:52 am 02:52 Cloudy 34 1 30 -1 87 87 WNW 8 13 29.71 1006 10 16.0934 0 0
2:53 am 02:53 Cloudy 34 1.1 30 -1.1 85 85 NW 9 15 29.68 1005 10 16.0934 0 0
3:06 am 03:06 Cloudy 34 1.1 29 -1.7 82 82 NNW 21 33 29.71 1006 10 16.0934 0 0
3:23 am 03:23 Cloudy 33 0.6 27 -2.8 78 78 NNW 12 19 29.73 1007 10 16.0934 0 0
3:34 am 03:34 Cloudy 32 0 27 -2.8 82 82 NNW 16 26 29.73 1007 10 16.0934 0 0
3:49 am 03:49 Cloudy 32 0 27 -3 80 80 NNW 13 20 29.74 1007 10 16.0934 0 0
3:54 am 03:54 Mostly Cloudy 32 0 25 -3.9 75 75 NW 10 17 29.7 1006 10 16.0934 0 0
4:54 am 04:54 Partly Cloudy 30 -1.1 24 -4.4 79 79 NNW 9 15 29.72 1006 10 16.0934 0 0
5:28 am 05:28 Cloudy 30 -1.1 24 -4.4 79 79 NNW 20 31 29.76 1008 10 16.0934 0 0
5:44 am 05:44 Cloudy 29 -1.7 23 -5 78 78 NNW 20 31 29.79 1009 10 16.0934 0 0
5:54 am 05:54 Cloudy 28 -2.2 22 -5.6 78 78 NNW 18 30 29.75 1007 10 16.0934 0 0
6:29 am 06:29 Cloudy 28 -2.2 21 -6.1 75 75 NNW 15 24 29.81 1009 10 16.0934 0 0
6:54 am 06:54 Cloudy 27 -2.8 21 -6.1 78 78 NNW 21 33 29.78 1009 10 16.0934 0 0
7:54 am 07:54 Cloudy 26 -3.3 20 -6.7 78 78 NNW 9 15 29.82 1010 10 16.0934 0 0
8:28 am 08:28 Cloudy 25 -3.9 18 -7.8 75 75 NNW 13 20 29.89 1012 10 16.0934 0 0
8:40 am 08:40 Cloudy 25 -3.9 18 -7.8 75 75 NNW 13 20 29.9 1012 10 16.0934 0 0
8:54 am 08:54 Cloudy 25 -3.9 18 -7.8 75 75 NW 16 26 29.86 1011 10 16.0934 0 0
9:40 am 09:40 Mostly Cloudy 25 -3.9 17 -8.3 72 72 NNW 17 28 29.92 1013 10 16.0934 0 0
9:54 am 09:54 Mostly Cloudy 25 -3.9 18 -7.8 75 75 NNW 14 22 29.89 1012 10 16.0934 0 0
10:21 am 10:21 Mostly Cloudy 26 -3.3 18 -7.8 71 71 NNW 15 24 29.94 1014 10 16.0934 0 0
10:45 am 10:45 Partly Cloudy 28 -2.2 18 -7.8 66 66 NNW 18 30 29.95 1014 10 16.0934 0 0
10:54 am 10:54 Mostly Cloudy 27 -2.8 18 -7.8 69 69 NNW 16 26 29.92 1013 10 16.0934 0 0
11:54 am 11:54 Cloudy 28 -2.2 18 -7.8 66 66 NNW 16 26 29.93 1013 10 16.0934 0 0
12:54 pm 12:54 Cloudy 28 -2.2 18 -7.8 66 66 NW 15 24 29.93 1013 10 16.0934 0 0
1:54 pm 13:54 Cloudy 28 -2.2 16 -8.9 60 60 NW 13 20 29.94 1014 10 16.0934 0 0
2:54 pm 14:54 Cloudy 28 -2.2 17 -8.3 63 63 NNW 10 17 29.96 1015 10 16.0934 0 0
3:54 pm 15:54 Cloudy 27 -2.8 16 -8.9 63 63 NW 10 17 29.99 1016 10 16.0934 0 0
4:54 pm 16:54 Cloudy 27 -2.8 15 -9.4 61 61 NNW 15 24 30.02 1017 10 16.0934 0 0
5:54 pm 17:54 Cloudy 26 -3.3 15 -9.4 63 63 N 14 22 30.04 1017 10 16.0934 0 0
6:07 pm 18:07 Cloudy 25 -3.9 15 -9.4 66 66 N 14 22 30.09 1019 10 16.0934 0 0
6:54 pm 18:54 Clear 23 -5 14 -10 68 68 NNW 14 22 30.07 1018 10 16.0934 0 0
7:54 pm 19:54 Clear 23 -5 14 -10 68 68 NNW 8 13 30.1 1019 10 16.0934 0 0
8:54 pm 20:54 Clear 21 -6.1 13 -10.6 71 71 NW 5 7 30.12 1020 10 16.0934 0 0
9:54 pm 21:54 Clear 16 -8.9 11 -11.7 80 80 N 3 6 30.14 1021 10 16.0934 0 0
10:54 pm 22:54 Mostly Cloudy 18 -7.8 12 -11.1 77 77 N 5 7 30.15 1021 10 16.0934 0 0
11:54 pm 23:54 Clear 17 -8.3 12 -11.1 80 80 Calm 30.16 1021 10 16.0934 0 0

Powered by AerisWeather